Regional Weather Roundup
Issued by NWS

Home | Current Version | Previous Version | Text Only | Print | Product List | Glossary Off
Versions: 1 2 3 4 5 6 7 8 9 10 11 12 13 14 15 16 17 18 19 20 21 22 23 24 25 26 27 28 29 30 31 32 33 34 35 36 37 38 39 40 41 42 43 44 45 46 47 48 49 50

416
ASUS44 KJAN 301703
RWRMS

MISSISSIPPI HOURLY WEATHER ROUNDUP
NATIONAL WEATHER SERVICE JACKSON MS
1200 PM CDT WED JUL 30 2014

NOTE: "FAIR: INDICATES FEW OR NO CLOUDS BELOW 12,000 FEET WITH NO
SIGNIFICANT WEATHER AND/OR OBSTRUCTIONS TO VISIBILITY.

MSZ001>002-007>008-010>013-018>021-025>028-034>036-301800-
NORTHWEST MISSISSIPPI

CITY           SKY/WX    TMP DP  RH WIND       PRES   REMARKS
CLARKSDALE     FAIR      79  57  47 SE5       30.13F
CLEVELAND      FAIR      78  59  52 SW3       30.12S
GREENWOOD      FAIR      78  56  46 VRB3      30.12F
GREENVILLE     FAIR      79  58  48 SE5       30.11F
GRENADA        FAIR      79  54  41 CALM      30.13S
OLIVE BRANCH   MOSUNNY   77  55  47 SW3       30.13F
OXFORD           N/A    N/A N/A N/A N3        30.14F
TUNICA         FAIR      79  55  44 SE7       30.13F
$$

MSZ003>006-009-014>017-022>024-029>033-037>039-301800-
NORTHEAST MISSISSIPPI

CITY           SKY/WX    TMP DP  RH WIND       PRES   REMARKS
BELMONT        FAIR      76  59  55 N5        30.13S
COLUMBUS AFB   FAIR      80  57  46 VRB3      30.11F
CORINTH        FAIR      79  57  47 CALM      30.13S
GOLDN TRIANGLE MOSUNNY   79  57  47 NE7       30.12F
STARKVILLE     FAIR      77  52  41 NE5       30.11F
TUPELO         FAIR      79  55  43 N6        30.12S
$$

MSZ040-058-301800-
CENTRAL MISSISSIPPI

CITY           SKY/WX    TMP DP  RH WIND       PRES   REMARKS
JACKSON INTL   FAIR      79  55  43 SE3       30.11F
JACKSON HAWKNS FAIR      80  54  40 N3        30.11F
MERIDIAN KEY   FAIR      81  53  37 VRB5      30.09F
MERIDIAN NAS   FAIR      80  54  40 VRB7      30.10F
RAYMOND        FAIR      81  75  83 CALM      30.11F
VICKSBURG      FAIR      83  57  41 N8        30.11F
$$

MSZ059>079-301800-
SOUTH MISSISSIPPI

CITY           SKY/WX    TMP DP  RH WIND       PRES   REMARKS
BROOKHAVEN     FAIR      79  61  53 N7        30.12F
COLUMBIA       FAIR      81  59  47 NE8       30.08F
HATTIESBURG    FAIR      81  55  40 CALM      30.09F
MCCOMB         FAIR      79  57  46 N3        30.10F
NATCHEZ        FAIR      79  61  53 NE5       30.11F
PINE BELT      FAIR      81  54  39 NE8       30.11S
$$

MSZ080>082-301800-
COASTAL MISSISSIPPI

CITY           SKY/WX    TMP DP  RH WIND       PRES   REMARKS
BAY ST LOUIS   SUNNY    N/A N/A N/A N7        30.07
BILOXI         FAIR      83  59  43 NW3       30.05F
PASCAGOULA     FAIR      83  60  45 VRB7      30.05F
GULFPORT       FAIR      86  59  39 N9        30.05F
$$



USA.gov is the U.S. government's official web portal to all federal, state and local government web resources and services.